Time,TemperatureF,DewpointF,PressureIn,WindDirection,WindDirectionDegrees,WindSpeedMPH,WindSpeedGustMPH,Humidity,HourlyPrecipIn,Conditions,Clouds,dailyrainin,SolarRadiationWatts/m^2,SoftwareType,DateUTC
2014-07-30 00:22:00,62.0,59.0,-100.00,SW,222,2.0,8.0,89,0.00,,,0.91,0.000000,,2014-07-30 06:22:00,
2014-07-30 00:42:00,62.0,59.0,-100.00,SW,222,2.0,8.0,89,0.00,,,0.91,0.000000,,2014-07-30 06:42:00,
2014-07-30 01:22:00,60.0,58.0,-100.00,South,184,1.0,5.0,94,0.00,,,0.91,0.000000,,2014-07-30 07:22:00,
2014-07-30 01:43:00,60.0,58.0,-100.00,South,184,1.0,5.0,94,0.00,,,0.91,0.000000,,2014-07-30 07:43:00,
2014-07-30 01:51:00,61.0,58.0,-100.00,SSW,192,3.0,5.0,91,0.00,,,0.91,0.000000,,2014-07-30 07:51:00,
2014-07-30 02:22:00,61.0,58.0,-100.00,SSW,192,3.0,5.0,91,0.00,,,0.91,0.000000,,2014-07-30 08:22:00,
2014-07-30 02:42:00,61.0,58.0,-100.00,SSW,192,3.0,5.0,91,0.00,,,0.91,0.000000,,2014-07-30 08:42:00,
2014-07-30 03:23:00,61.0,58.0,-100.00,West,265,2.0,9.0,91,0.00,,,0.91,0.000000,,2014-07-30 09:23:00,
2014-07-30 03:33:00,61.0,58.0,-100.00,West,265,2.0,9.0,91,0.00,,,0.91,0.000000,,2014-07-30 09:33:00,
2014-07-30 03:43:00,61.0,58.0,-100.00,West,265,2.0,9.0,91,0.00,,,0.91,0.000000,,2014-07-30 09:43:00,
2014-07-30 03:51:00,61.0,59.0,-100.00,South,183,1.0,5.0,93,0.00,,,0.91,0.000000,,2014-07-30 09:51:00,
2014-07-30 04:23:00,61.0,59.0,-100.00,South,183,1.0,5.0,93,0.00,,,0.91,0.000000,,2014-07-30 10:23:00,
2014-07-30 04:33:00,61.0,59.0,-100.00,South,183,1.0,5.0,93,0.00,,,0.91,0.000000,,2014-07-30 10:33:00,
2014-07-30 04:43:00,61.0,59.0,-100.00,South,183,1.0,5.0,93,0.00,,,0.91,0.000000,,2014-07-30 10:43:00,
2014-07-30 04:51:00,59.0,58.0,-100.00,ENE,64,1.0,5.0,95,0.00,,,0.91,0.000000,,2014-07-30 10:51:00,
2014-07-30 05:23:00,59.0,58.0,-100.00,ENE,64,1.0,5.0,95,0.00,,,0.91,0.000000,,2014-07-30 11:23:00,
2014-07-30 05:33:00,59.0,58.0,-100.00,ENE,64,1.0,5.0,95,0.00,,,0.91,0.000000,,2014-07-30 11:33:00,
2014-07-30 05:43:00,59.0,58.0,-100.00,ENE,64,1.0,5.0,95,0.00,,,0.91,0.000000,,2014-07-30 11:43:00,
2014-07-30 05:51:00,59.0,58.0,-100.00,WSW,255,5.0,7.0,95,0.00,,,0.91,0.000000,,2014-07-30 11:51:00,
2014-07-30 06:33:00,59.0,58.0,-100.00,WSW,255,5.0,7.0,95,0.00,,,0.91,0.000000,,2014-07-30 12:33:00,
2014-07-30 07:32:00,58.0,57.0,-100.00,WSW,240,1.0,7.0,95,0.00,,,0.91,4.000000,,2014-07-30 13:32:00,
2014-07-30 07:42:00,58.0,57.0,-100.00,WSW,240,1.0,7.0,95,0.00,,,0.91,4.000000,,2014-07-30 13:42:00,
2014-07-30 07:51:00,61.0,60.0,-100.00,WNW,302,1.0,6.0,95,0.00,,,0.91,57.000000,,2014-07-30 13:51:00,
2014-07-30 08:32:00,61.0,60.0,-100.00,WNW,302,1.0,6.0,95,0.00,,,0.91,57.000000,,2014-07-30 14:32:00,
2014-07-30 08:42:00,61.0,60.0,-100.00,WNW,302,1.0,6.0,95,0.00,,,0.91,57.000000,,2014-07-30 14:42:00,
2014-07-30 09:22:00,67.0,60.0,-100.00,NNE,23,2.0,4.0,78,0.00,,,0.91,330.000000,,2014-07-30 15:22:00,
2014-07-30 09:44:00,67.0,60.0,-100.00,NNE,23,2.0,4.0,78,0.00,,,0.91,330.000000,,2014-07-30 15:44:00,
2014-07-30 10:23:00,72.0,61.0,-100.00,NW,325,1.0,5.0,68,0.00,,,0.91,524.000000,,2014-07-30 16:23:00,
2014-07-30 10:33:00,72.0,61.0,-100.00,NW,325,1.0,5.0,68,0.00,,,0.91,524.000000,,2014-07-30 16:33:00,
2014-07-30 10:51:00,75.0,60.0,-100.00,NE,38,3.0,7.0,60,0.00,,,0.91,761.000000,,2014-07-30 16:51:00,
2014-07-30 11:23:00,75.0,60.0,-100.00,NE,38,3.0,7.0,60,0.00,,,0.91,761.000000,,2014-07-30 17:23:00,
2014-07-30 11:43:00,75.0,60.0,-100.00,NE,38,3.0,7.0,60,0.00,,,0.91,761.000000,,2014-07-30 17:43:00,
2014-07-30 11:51:00,73.0,58.0,-100.00,WNW,295,3.0,9.0,59,0.00,,,0.91,674.000000,,2014-07-30 17:51:00,
2014-07-30 12:51:00,77.0,57.0,-100.00,WSW,248,6.0,10.0,51,0.00,,,0.91,742.000000,,2014-07-30 18:51:00,
2014-07-30 13:33:00,77.0,57.0,-100.00,WSW,248,6.0,10.0,51,0.00,,,0.91,742.000000,,2014-07-30 19:33:00,
2014-07-30 13:42:00,77.0,57.0,-100.00,WSW,248,6.0,10.0,51,0.00,,,0.91,742.000000,,2014-07-30 19:42:00,
2014-07-30 13:51:00,76.0,55.0,-100.00,NNW,328,4.0,12.0,49,0.00,,,0.91,488.000000,,2014-07-30 19:51:00,
2014-07-30 14:22:00,76.0,55.0,-100.00,NNW,328,4.0,12.0,49,0.00,,,0.91,488.000000,,2014-07-30 20:22:00,
2014-07-30 14:42:00,76.0,55.0,-100.00,NNW,328,4.0,12.0,49,0.00,,,0.91,488.000000,,2014-07-30 20:42:00,
2014-07-30 15:22:00,81.0,57.0,-100.00,ESE,114,2.0,10.0,44,0.00,,,0.91,676.000000,,2014-07-30 21:22:00,
2014-07-30 15:33:00,81.0,57.0,-100.00,ESE,114,2.0,10.0,44,0.00,,,0.91,676.000000,,2014-07-30 21:33:00,
2014-07-30 15:43:00,81.0,57.0,-100.00,ESE,114,2.0,10.0,44,0.00,,,0.91,676.000000,,2014-07-30 21:43:00,
2014-07-30 16:23:00,83.0,55.0,-100.00,WNW,299,5.0,14.0,38,0.00,,,0.10,885.000000,,2014-07-30 22:23:00,
2014-07-30 16:33:00,83.0,55.0,-100.00,WNW,299,5.0,14.0,38,0.00,,,0.10,885.000000,,2014-07-30 22:33:00,
2014-07-30 16:43:00,83.0,55.0,-100.00,WNW,299,5.0,14.0,38,0.00,,,0.10,885.000000,,2014-07-30 22:43:00,
2014-07-30 18:22:00,83.0,51.0,-100.00,NNW,329,4.0,13.0,33,0.00,,,0.00,594.000000,,2014-07-31 00:22:00,
2014-07-30 18:32:00,83.0,51.0,-100.00,NNW,329,4.0,13.0,33,0.00,,,0.00,594.000000,,2014-07-31 00:32:00,
2014-07-30 18:42:00,83.0,51.0,-100.00,NNW,329,4.0,13.0,33,0.00,,,0.00,594.000000,,2014-07-31 00:42:00,